| time (UTC) | temp C | wind direction | speed KPH | gust KPH | rain 1hr cm | rain 24hr cm | rain mn cm | humidity % | barometer mb |
| 20260502181416 | 19 | 315 | 0.0 | 3.2 | 0.00 | 0.00 | 0.00 | 70 | 1013.6 |
| 20260502161414 | 22 | 180 | 6.4 | 24.1 | 0.00 | 0.00 | 0.00 | 50 | 1014.2 |
| 20260502151414 | 23 | 270 | 6.4 | 11.3 | 0.00 | 0.00 | 0.00 | 45 | 1014.7 |
| 20260502121415 | 27 | 180 | 37.0 | 56.3 | 0.00 | 0.00 | 0.00 | 30 | 1015.8 |
| 20260502114414 | 26 | 225 | 22.5 | 49.9 | 0.00 | 0.00 | 0.00 | 22 | 1016.0 |
| 20260502111414 | 26 | 180 | 19.3 | 43.5 | 0.00 | 0.00 | 0.00 | 21 | 1016.2 |
| 20260502104414 | 25 | 225 | 33.8 | 49.9 | 0.00 | 0.00 | 0.00 | 22 | 1016.4 |
| 20260502101414 | 26 | 225 | 25.7 | 41.8 | 0.00 | 0.00 | 0.00 | 21 | 1016.7 |
| 20260502091414 | 25 | 225 | 22.5 | 40.2 | 0.00 | 0.00 | 0.00 | 26 | 1017.0 |
| 20260502071415 | 19 | 180 | 16.1 | 29.0 | 0.00 | 0.00 | 0.00 | 36 | 1017.7 |
| 20260502064415 | 17 | 180 | 12.9 | 17.7 | 0.00 | 0.00 | 0.00 | 41 | 1017.8 |
| 20260502061416 | 16 | 202 | 12.9 | 24.1 | 0.00 | 0.00 | 0.00 | 46 | 1017.9 |
| 20260502054416 | 12 | 180 | 8.0 | 17.7 | 0.00 | 0.00 | 0.00 | 63 | 1018.1 |
| 20260502044417 | 8 | 180 | 3.2 | 6.4 | 0.00 | 0.00 | 0.00 | 76 | 1018.1 |
| 20260502041416 | 8 | 180 | 1.6 | 3.2 | 0.00 | 0.00 | 0.00 | 75 | 1018.2 |
| 20260502034417 | 9 | 180 | 1.6 | 6.4 | 0.00 | 0.00 | 0.00 | 70 | 1018.4 |
| 20260502031416 | 9 | 180 | 3.2 | 6.4 | 0.00 | 0.00 | 0.00 | 70 | 1018.5 |
| 20260502024416 | 10 | 180 | 1.6 | 8.0 | 0.00 | 0.00 | 0.00 | 66 | 1018.7 |
| 20260502021416 | 10 | 180 | 3.2 | 6.4 | 0.00 | 0.00 | 0.00 | 66 | 1019.0 |
| 20260502001416 | 12 | 135 | 0.0 | 6.4 | 0.00 | 0.00 | 0.00 | 61 | 1020.2 |
| 20260501234416 | 11 | 157 | 1.6 | 8.0 | 0.00 | 0.00 | 0.00 | 64 | 1020.3 |
| 20260501231417 | 12 | 180 | 0.0 | 3.2 | 0.00 | 0.00 | 0.00 | 57 | 1020.5 |
| 20260501224415 | 13 | 180 | 0.0 | 6.4 | 0.00 | 0.00 | 0.00 | 53 | 1020.6 |
| 20260501221415 | 14 | 180 | 1.6 | 9.7 | 0.00 | 0.00 | 0.00 | 51 | 1020.6 |
| 20260501214416 | 14 | 180 | 0.0 | 3.2 | 0.00 | 0.00 | 0.00 | 50 | 1020.8 |
| 20260501211416 | 15 | 90 | 1.6 | 6.4 | 0.00 | 0.00 | 0.00 | 45 | 1020.8 |
| 20260501204415 | 16 | 90 | 1.6 | 6.4 | 0.00 | 0.00 | 0.00 | 44 | 1020.9 |
| 20260501201415 | 17 | 90 | 1.6 | 6.4 | 0.00 | 0.00 | 0.00 | 42 | 1021.1 |
| 20260501194415 | 18 | 90 | 1.6 | 9.7 | 0.00 | 0.00 | 0.00 | 36 | 1021.2 |